Reflectivity
3 -8 -20 -20 -20 -20 -19 -8 -20 -12 -20 -20 -20 -20 -12 -20 -20 2 -20 -20 9 20 9 20 14 5 14 15 6 13 11 12 9 8 10 -17 -7 -12 -20 -14 12 2 3
-20 -20 -20 -20 -20 -20 -20 -20 -20 -20 -20 -20 -20 -20 -20 -20 -20 -20 -20 -13 9 -20 -8 -19 -1 -10 -11 -1 1 9 11 -6 -9 -9 11 -4 10 10 6 -1 -5 8 7
-20 -20 -20 -20 -20 -20 -20 -20 -20 -20 -20 -20 -20 -20 -20 -20 -20 -20 -20 -20 1 -3 -19 -20 -20 -20 -20 1 -18 -20 -20 -20 -20 -20 2 -5 3 2 10 13 17 15 6
-20 -20 -20 -20 -20 -20 -20 -20 -20 -20 -20 -20 -20 -20 -20 -12 -20 -20 -20 -20 -20 -20 -20 -20 -20 -20 -20 -20 -18 -20 -20 -20 -20 -20 -20 -20 -20 -13 7 -11 -20 -20 12
-20 -20 -20 -20 -20 -20 -20 -20 -20 -20 -20 -20 -20 -20 -20 -20 -20 -20 -20 -20 -20 -20 -20 -20 -20 -20 -20 -20 -20 -20 -20 -20 -20 -20 -20 -20 -20 -20 -20 -20 -4 -3 -20
-20 -20 -20 -20 -20 -20 -20 -20 -20 -20 -20 -20 -20 -20 -20 -20 -20 -20 -20 -20 -20 -20 -20 -20 -20 -20 -20 -20 -20 -20 -20 -20 -20 -20 -20 -20 -20 -20 -20 -8 -20 -20 -18
-20 -20 -20 -20 -20 -20 -20 -20 -20 -20 -20 -20 -20 -20 -20 -20 -20 -20 -20 -20 -20 -20 -20 -20 -20 -20 -20 -20 -20 -20 -20 -20 -20 -20 -20 -20 -20 -20 -20 10 4 10 -19
-20 -20 -20 -20 -20 -20 -20 -20 -20 -20 -20 -20 -20 -20 -20 -20 -20 -20 -20 -20 -20 -20 -20 -20 -20 -20 -20 -20 -20 -20 -20 -20 -20 -20 -20 -20 -20 -20 -10 15 16 13 -20
-20 -20 -20 -20 -20 -20 -20 -20 -20 -20 -20 -20 -20 -20 -20 -20 -20 -20 -20 -20 -20 -20 -20 -20 -20 -20 -20 -20 -20 -20 -20 -20 -20 -20 -20 -20 -20 2 16 11 -18 -17 -20
-20 -20 -20 -20 -20 -20 -20 -20 -20 -20 -20 -20 -20 -20 -20 -20 -20 -20 -20 -20 -20 -20 -20 -20 -20 -20 -20 -20 -20 -20 -20 -20 -20 -20 -10 -2 -9 14 10 -20 -14 5 -5
-20 -20 -20 -20 -20 -20 -20 -20 -20 -20 -20 -20 -20 -20 -20 -20 -20 -20 -20 -20 -20 -20 -20 -20 -20 -20 -20 -20 -20 -20 -20 -20 -20 -20 -20 -19 -18 5 -1 -2 8 13 14
-20 -20 -20 -20 -20 -20 -20 -20 -20 -20 -20 -20 -20 -20 -20 -20 -20 -20 -20 -20 -20 -20 -20 -20 -20 -20 -20 -20 -20 -20 -20 -20 -20 -20 -19 -13 -20 -2 9 14 17 15 13
-20 -20 -20 -20 -20 -20 -20 -20 -20 -20 -20 -20 -20 -20 -20 -20 -20 -20 -20 -20 -20 -20 -20 -20 -20 -20 -20 -20 -20 -20 -20 -20 -20 -20 -20 -19 -14 3 6 3 4 11 14
-20 -20 -20 -20 -20 -20 -20 -20 -20 -20 -20 -20 -20 -20 -20 -20 -20 -20 -20 -20 -20 -20 -20 -20 -20 -20 -20 -20 -20 -20 -20 -20 -20 -20 -20 -2 3 8 11 13 14 12 13
-20 -20 -20 -20 -20 -20 -20 -20 -20 -20 -20 -20 -20 -20 -20 -20 -20 -20 -20 -20 -20 -20 -20 -20 -20 -20 -20 -20 -20 -20 -20 -20 -20 -20 -20 -20 1 8 11 14 12 15 15
-20 -20 -20 -20 -20 -20 -20 -20 -20 -20 -20 -20 -20 -20 -20 -20 -20 -20 -20 -20 -20 -20 -20 -20 -20 -20 -20 -20 -20 -20 -20 -7 -20 -20 -20 -12 -20 -20 -9 -0 10 11 12
-20 -20 -20 -20 -20 -20 -20 -20 -20 -20 -20 -20 -20 -20 -20 -20 -20 -20 -20 -20 -20 -16 -20 -20 -20 -20 -20 -20 -20 -20 -20 -20 -20 -20 -20 -20 -20 -20 -20 -20 4 10 10
-20 -20 -20 -20 -20 -20 -20 -20 -20 -20 -20 -20 -20 -20 -20 -20 -20 -20 -20 -20 -20 -20 0 -20 -20 -8 -3 -20 -20 -7 -20 -20 -20 -20 -20 -20 -20 -20 -20 -20 3 5 6
-20 -20 -20 -20 -20 -20 -20 -20 -20 -20 -20 -20 -20 -20 -20 -20 -20 -20 -20 -20 -20 -20 -5 4 0 -7 -14 -1 0 -17 -19 -20 -20 -20 -20 -20 -20 -20 -20 -20 -3 -0 -8
-20 -20 -20 -20 -20 -20 -20 -20 -20 -20 -20 -20 -20 -20 -20 -20 -20 -20 -20 -20 -20 -9 -16 -17 -11 -6 4 -11 2 4 -7 -13 -15 -20 -20 -20 -20 -20 -20 -20 -12 5 7
-20 -20 -20 -20 -20 -20 -20 -20 -20 -20 -20 -20 -20 -20 -20 -20 -20 -20 -20 -20 -20 -20 -16 -14 -8 -15 -5 4 7 6 8 6 -9 -8 -8 -20 -20 -20 -20 -19 -7 -20 -20
-20 -20 -20 -20 -20 -20 -20 -20 -20 -20 -20 -20 -20 -20 -20 -20 -20 -20 -11 -17 -0 -1 1 2 -17 1 -20 6 4 10 11 10 9 -20 6 -20 -20 -14 -20 -20 -20 -20 16
-20 -20 -20 -20 -20 -20 -20 -20 -20 -20 -20 -20 -20 -20 -20 -20 -20 -20 -20 -19 -20 -16 2 -7 -1 4 7 8 8 9 6 11 10 -0 4 9 -2 -8 -3 3 -2 8 -3
-20 -20 -20 -20 -20 -20 -20 -20 -20 -20 -20 -20 -20 -20 -20 -20 -20 -8 -20 -20 -20 -20 -20 -19 -11 -6 -8 -1 2 1 7 9 -13 -20 5 7 -1 -11 -20 12 -12 -15 -20
-20 -20 -20 -20 -20 -20 -20 -20 -20 -20 -20 -20 -20 -20 -20 -20 -20 -9 -20 -20 -20 -20 -20 -20 4 7 5 -7 -19 3 6 6 4 6 14 7 5 6 -6 -16 7 -16 -20
-20 -20 -20 -20 -20 -20 -20 -20 -20 -20 -20 -20 -20 -20 -20 -20 -20 -20 -20 -8 -18 3 -4 -20 -18 -15 -20 -20 -20 -19 6 4 8 6 -13 7 8 12 5 5 6 2 11
Wind_Speed
5 5 5 5 5 5 5 4 5 5 6 6 7 7 11 10 11 6 6 21 23 22 24 22 22 21 21 20 20 20 19 19 18 17 16 17 17 16 16 15 17 19 19
5 5 5 6 6 6 5 5 6 5 5 5 8 13 12 11 12 11 8 8 19 24 24 23 23 22 21 20 21 21 20 19 19 20 20 18 19 18 18 17 15 15 15
8 7 6 6 6 5 6 6 6 5 5 6 12 11 11 12 12 13 9 8 8 17 22 22 22 23 22 20 19 21 22 22 20 20 21 22 20 20 19 19 20 18 16
9 8 7 6 6 5 6 7 6 5 6 8 8 9 9 9 12 12 11 10 9 8 12 19 20 22 21 21 21 22 21 22 22 21 20 20 21 22 20 20 20 21 22
10 8 7 7 6 6 7 7 7 5 6 8 8 7 8 9 10 10 12 12 11 10 8 13 15 19 21 20 23 22 22 22 22 22 21 21 21 22 21 20 21 22 23
9 8 8 9 7 7 7 8 9 7 6 5 7 7 7 7 8 8 11 9 10 10 10 11 9 8 18 18 23 23 22 23 23 22 22 22 23 23 20 20 21 23 24
10 9 8 9 8 9 9 8 8 11 8 4 0 4 5 6 6 6 7 9 10 8 11 9 9 7 8 14 21 22 22 24 23 22 24 23 24 22 21 20 22 22 24
10 10 10 9 10 9 11 11 9 5 8 9 3 0 1 4 3 5 6 8 10 8 8 9 11 10 9 9 15 20 22 24 24 24 25 24 24 23 22 22 23 24 25
11 12 11 10 10 9 9 10 11 9 7 9 13 4 1 4 5 1 4 6 10 7 9 8 10 9 9 10 13 14 22 22 23 25 25 24 25 24 23 24 26 25 26
11 12 11 11 9 8 9 9 9 9 8 7 5 8 10 6 4 4 2 5 9 8 10 8 9 8 10 10 16 17 23 23 24 25 24 25 25 24 25 26 27 26 27
11 11 11 10 9 7 9 10 10 10 8 8 8 4 4 3 6 3 5 9 6 8 9 7 8 7 10 12 12 16 24 23 25 25 24 25 25 25 26 26 26 26 27
6 9 10 9 9 8 9 8 8 9 8 8 7 7 6 5 6 5 5 11 11 9 10 9 8 7 9 12 15 20 24 22 24 25 25 26 25 26 26 26 26 27 26
5 7 8 9 8 9 8 7 7 8 8 8 8 6 5 5 5 5 5 7 7 8 5 6 8 9 11 12 14 23 23 22 25 27 26 26 26 27 26 27 27 27 26
5 7 8 7 8 8 8 7 6 6 7 7 9 7 4 5 5 5 5 7 8 6 7 8 7 8 12 12 17 25 16 21 26 26 25 25 26 25 27 27 27 26 26
6 7 6 7 8 9 8 8 7 7 7 6 7 7 5 5 4 4 5 5 5 7 10 5 11 14 12 13 14 15 15 22 25 24 24 26 26 27 27 26 26 26 26
6 7 7 6 7 8 8 8 7 7 7 6 5 6 6 5 5 5 6 5 5 6 7 9 11 14 14 12 16 16 17 22 21 21 22 25 27 27 25 25 25 25 25
7 6 6 6 7 7 7 8 7 7 7 7 7 7 8 8 6 6 6 6 6 7 10 12 12 13 15 15 15 14 15 16 15 22 22 23 25 26 25 27 28 27 23
6 6 6 6 6 6 6 7 7 6 7 8 7 8 8 7 8 8 7 8 8 9 9 16 14 11 14 14 12 18 13 13 15 19 24 22 21 23 24 25 25 22 22
6 6 6 6 6 5 5 5 5 6 6 6 7 8 8 9 9 9 9 9 8 8 9 10 12 11 11 11 14 14 13 14 13 22 20 19 19 24 23 23 22 21 20
6 6 5 6 6 5 4 4 5 6 6 6 6 6 7 8 10 11 9 10 9 9 10 10 10 10 10 12 12 13 14 12 14 14 16 16 22 22 19 18 18 19 19
6 6 6 6 6 4 2 4 5 5 6 7 7 6 6 8 10 10 8 10 11 9 9 10 10 10 11 12 14 12 13 13 15 11 12 14 13 12 13 15 14 20 22
6 6 6 6 6 3 6 5 4 5 6 7 7 7 7 7 10 9 13 14 10 11 11 10 10 12 15 13 12 12 12 13 12 11 14 14 13 12 13 12 19 21 21
7 6 6 6 6 5 6 5 2 4 5 7 8 7 7 7 8 12 14 13 11 11 11 12 14 14 14 15 14 14 16 15 14 13 13 13 12 13 14 11 18 19 22
8 6 6 5 6 4 5 4 2 4 5 7 7 8 8 10 11 13 11 11 12 11 12 11 13 13 13 15 15 14 15 15 14 12 12 10 11 10 12 9 15 17 21
7 7 5 6 5 4 5 4 3 3 5 6 6 7 9 9 13 14 11 11 12 12 13 14 15 16 16 17 16 10 10 11 12 11 5 6 7 10 7 5 10 15 19
7 6 6 5 4 4 5 1 3 3 5 5 6 6 2 9 12 13 11 10 12 11 14 13 12 11 12 12 16 11 9 10 10 7 7 8 6 10 6 2 7 7 10
Wind_Direction
47 37 43 39 25 4 7 14 10 12 26 23 36 48 62 61 64 67 63 43 42 44 50 44 39 40 37 37 34 30 28 23 16 16 10 10 1 355 355 331 282 265 261
60 56 45 32 37 19 11 17 20 20 34 32 59 67 67 65 67 60 48 47 45 42 41 42 35 34 35 36 34 28 24 21 15 11 359 1 351 348 347 343 336 338 317
53 54 49 44 33 24 17 28 29 36 50 69 78 72 66 61 62 51 44 39 32 55 37 45 35 29 24 22 26 23 18 8 8 8 6 8 359 359 353 352 349 338 337
54 61 57 44 28 37 35 37 22 46 65 79 74 71 69 62 63 54 49 42 36 29 45 29 33 30 25 21 16 17 10 6 2 356 354 355 352 350 355 354 354 351 356
53 62 58 44 34 46 42 37 39 36 77 94 91 88 80 73 60 55 47 44 41 32 27 29 21 33 22 20 16 7 3 3 355 352 349 350 346 341 337 346 351 349 347
52 59 62 51 42 46 48 48 49 59 69 69 87 80 75 69 65 56 48 40 33 30 22 20 12 25 21 16 12 4 1 359 352 348 348 343 340 333 334 338 341 339 336
54 55 57 53 51 49 44 39 60 51 53 32 201 113 102 83 67 58 45 39 25 21 20 11 13 4 8 11 7 2 0 355 351 348 344 338 334 327 332 333 334 330 327
62 65 57 54 48 50 43 41 40 62 55 33 25 30 85 164 46 45 31 27 21 13 4 9 7 1 3 5 358 358 358 352 348 346 338 339 331 330 332 330 327 324 323
64 65 62 58 52 53 46 42 38 45 60 54 46 20 37 17 338 29 20 19 5 3 358 356 6 0 1 357 353 355 354 349 346 341 337 333 331 325 327 324 320 317 318
68 65 64 58 56 56 51 46 43 44 43 52 57 48 59 37 359 326 358 357 352 356 358 354 357 360 358 354 351 351 346 344 342 339 336 334 329 325 323 322 318 319 317
70 67 66 66 61 60 62 53 49 46 48 56 53 46 48 58 27 327 322 339 346 354 355 347 347 350 353 351 344 345 337 336 337 334 332 332 328 325 323 320 320 318 317
88 74 72 67 64 64 63 60 61 56 57 59 56 48 42 28 15 9 323 341 332 343 334 349 352 349 346 345 337 338 335 337 335 333 328 331 327 325 323 322 319 318 317
94 90 76 66 60 61 65 68 68 61 53 53 43 44 46 41 18 8 346 341 314 323 329 326 352 348 344 340 339 342 331 338 337 331 332 328 328 325 322 321 320 318 317
106 107 88 81 73 66 64 64 64 57 53 49 43 41 45 33 9 7 3 336 330 321 314 333 336 345 339 336 330 333 332 333 332 331 328 328 323 321 320 319 318 317 317
115 117 114 98 78 66 56 57 56 49 51 45 39 32 24 18 11 8 360 353 346 324 325 345 336 334 334 332 331 327 326 330 324 323 322 323 322 322 321 320 319 317 315
126 142 139 106 82 66 56 53 51 48 49 40 30 20 16 10 10 6 354 345 328 316 298 329 329 333 334 322 326 328 327 319 313 316 320 320 316 319 319 316 317 315 315
151 144 135 107 86 72 55 53 55 46 42 32 22 17 17 9 7 -0 349 340 333 327 311 317 322 324 325 322 323 322 318 320 321 326 319 313 314 310 313 315 317 318 319
150 128 127 120 105 86 65 51 48 41 30 20 16 13 16 6 6 358 345 341 336 335 322 314 317 322 321 319 321 323 320 320 320 319 315 315 307 307 314 315 315 319 317
141 137 134 142 123 95 77 60 54 43 28 23 17 13 9 2 1 351 344 343 339 327 321 311 313 316 316 324 322 322 325 322 321 324 319 319 323 317 316 313 312 313 318
149 148 146 141 127 115 89 64 54 37 31 27 16 12 9 2 357 346 344 347 332 323 318 314 314 314 325 327 323 328 327 329 326 326 325 335 317 318 312 314 312 320 327
163 158 145 146 145 136 91 65 51 32 20 17 18 11 11 356 351 352 344 338 333 326 325 322 323 321 326 333 335 330 322 324 329 334 329 330 328 327 329 328 334 334 331
167 165 169 164 162 144 123 106 31 21 17 12 7 8 360 353 355 349 342 339 328 335 331 330 324 326 328 331 327 328 322 328 328 333 327 325 331 328 335 335 341 343 342
174 180 176 171 165 156 144 124 83 16 6 10 4 1 358 1 351 350 346 342 340 323 304 314 321 326 328 330 328 329 328 322 321 324 326 320 332 332 335 333 11 357 351
188 184 178 174 168 163 157 150 143 350 5 6 2 359 352 356 7 345 341 338 337 335 338 327 326 324 323 326 330 324 318 316 314 325 334 317 333 326 328 344 12 1 357
183 183 179 166 178 172 189 187 237 334 353 354 353 358 359 352 357 350 340 340 337 340 333 331 321 311 317 323 323 318 319 320 321 328 360 312 329 320 317 313 353 354 355
184 174 160 167 164 176 172 181 238 329 338 344 347 353 32 346 337 339 341 341 340 336 333 330 327 332 335 322 322 331 318 318 320 317 353 330 326 341 324 3 344 350 345